Find Starlink 6335

NORAD ID: 56527 Int'l Des: 2023-065 Owner: SPXS Country: US Constellation: starlink operational
LEOCIRCULAR

Live Position

Loading 3D Globe...

About Starlink 6335

Description loading...

Upcoming Passes

Passes for default location (London). Set your location on the main map for personalized predictions.

Altitude History

Loading altitude history...

Two-Line Element Set

1 56527U 23065AA 26106.91668981 -.00019252 00000-0 -70961-3 0 9991
2 56527 43.0007 0.1754 0001547 268.5239 99.3693 15.26753242 5764
Epoch: Apr 16, 2026 • Age: 11 hours

Current Status

Altitude 484.9 km
Velocity 7.63 km/s
Sub-Earth Point 5.64°N, 23.23°E
Launch Date May 14, 2023
Age 2.9 years
Type internet

Technical Details

Classification Payload
Mass 305.00 kg
Dry Mass 290.00 kg
Total Mass 305.00 kg
Length 0.20 m
Diameter 2.80 m
Span 9.00 m
Shape Box + pan
Manufacturer SPXS
Bus Type Starlink
Phase Status In Orbit
Owner/State SPXS/US

Most Searched